TimeCST,TemperatureF,Dew PointF,Humidity,Sea Level PressureIn,VisibilityMPH,Wind Direction,Wind SpeedMPH,Gust SpeedMPH,PrecipitationIn,Events,Conditions,WindDirDegrees,DateUTC
12:54 AM,28.0,24.1,85,30.17,10.0,Calm,Calm,-,N/A,,Clear,0,2013-03-02 06:54:00
1:54 AM,28.0,24.1,85,30.16,9.0,Calm,Calm,-,N/A,,Scattered Clouds,0,2013-03-02 07:54:00
2:54 AM,30.0,26.1,85,30.17,9.0,Calm,Calm,-,N/A,,Mostly Cloudy,0,2013-03-02 08:54:00
3:54 AM,28.0,24.1,85,30.17,8.0,Calm,Calm,-,N/A,,Clear,0,2013-03-02 09:54:00
4:54 AM,32.0,26.1,79,30.18,9.0,NW,4.6,-,N/A,,Partly Cloudy,320,2013-03-02 10:54:00
5:54 AM,30.9,27.0,85,30.19,8.0,NW,3.5,-,N/A,,Mostly Cloudy,320,2013-03-02 11:54:00
6:54 AM,33.1,28.0,82,30.20,6.0,NNW,6.9,-,N/A,,Haze,340,2013-03-02 12:54:00
7:54 AM,34.0,28.0,79,30.22,7.0,NW,6.9,-,N/A,,Overcast,320,2013-03-02 13:54:00
8:54 AM,36.0,27.0,70,30.23,7.0,Variable,5.8,-,N/A,,Overcast,0,2013-03-02 14:54:00
9:54 AM,37.9,25.0,60,30.24,10.0,NW,9.2,-,N/A,,Overcast,310,2013-03-02 15:54:00
10:54 AM,37.9,24.1,57,30.25,10.0,NW,11.5,-,N/A,,Overcast,310,2013-03-02 16:54:00
11:54 AM,37.9,24.1,57,30.23,10.0,NNW,13.8,-,N/A,,Overcast,340,2013-03-02 17:54:00
12:54 PM,37.9,25.0,60,30.21,10.0,NNW,9.2,-,0.00,,Overcast,330,2013-03-02 18:54:00
1:54 PM,37.9,24.1,57,30.20,10.0,NNW,6.9,18.4,0.00,Snow,Light Snow,330,2013-03-02 19:54:00
2:54 PM,37.0,25.0,62,30.20,10.0,NW,9.2,21.9,0.00,,Overcast,320,2013-03-02 20:54:00
3:54 PM,37.0,25.0,62,30.20,10.0,NNW,10.4,-,N/A,,Overcast,330,2013-03-02 21:54:00
4:54 PM,36.0,24.1,62,30.22,10.0,NNW,15.0,-,N/A,,Overcast,330,2013-03-02 22:54:00
5:54 PM,36.0,23.0,59,30.24,10.0,NNW,12.7,-,N/A,,Overcast,340,2013-03-02 23:54:00
6:54 PM,36.0,21.0,55,30.25,10.0,NW,9.2,20.7,N/A,,Overcast,320,2013-03-03 00:54:00
7:54 PM,36.0,19.9,52,30.26,10.0,NNW,11.5,19.6,N/A,,Overcast,330,2013-03-03 01:54:00
8:54 PM,34.0,21.0,59,30.26,10.0,North,8.1,-,N/A,,Mostly Cloudy,360,2013-03-03 02:54:00
9:54 PM,32.0,21.0,64,30.26,10.0,North,9.2,-,N/A,,Partly Cloudy,360,2013-03-03 03:54:00
10:54 PM,30.0,19.9,66,30.26,10.0,North,5.8,-,N/A,,Clear,350,2013-03-03 04:54:00
11:54 PM,27.0,19.9,75,30.25,10.0,NNW,4.6,-,N/A,,Clear,340,2013-03-03 05:54:00